GW6586 Weather Reports


time (UTC)temp
F
wind
direction
speed
knots
gust
knots
rain 1hr
in
rain 24hr
in
rain mn
in
humidity
%
barometer
mb
20260506180014 56 138 2.6 7.0 0.00 0.00 0.00 69 1029.3
20260506174513 56 114 2.6 9.6 0.00 0.00 0.00 67 1029.2
20260506173024 56 152 3.5 6.1 0.00 0.00 0.00 67 1029.2
20260506171508 57 137 3.5 7.8 0.00 0.00 0.00 66 1029.3
20260506170020 57 115 3.5 7.0 0.00 0.00 0.00 65 1029.3
20260506163013 58 122 4.3 7.8 0.00 0.00 0.00 63 1029.3
20260506161521 59 137 3.5 8.7 0.00 0.00 0.00 62 1029.5
20260506160027 59 126 5.2 9.6 0.00 0.00 0.00 61 1029.5
20260506154519 60 121 5.2 9.6 0.00 0.00 0.00 61 1029.4
20260506151513 61 87 5.2 10.4 0.00 0.00 0.00 59 1029.4
20260506144530 61 48 6.1 10.4 0.00 0.00 0.00 59 1029.5
20260506143016 61 126 6.1 9.6 0.00 0.00 0.00 60 1029.4
20260506141524 61 119 4.3 7.8 0.00 0.00 0.00 60 1029.3
20260506140027 61 145 5.2 8.7 0.00 0.00 0.00 59 1029.3
20260506134520 61 117 5.2 7.8 0.00 0.00 0.00 60 1029.3
20260506133024 61 87 5.2 7.8 0.00 0.00 0.00 60 1029.3
20260506131511 62 137 4.3 10.4 0.00 0.00 0.00 59 1029.2
20260506130020 62 98 5.2 8.7 0.00 0.00 0.00 60 1029.2
20260506124527 62 121 5.2 9.6 0.00 0.00 0.00 60 1029.1
20260506123016 62 117 5.2 8.7 0.00 0.00 0.00 63 1029.0
20260506121524 62 145 3.5 6.1 0.00 0.00 0.00 64 1028.9
20260506120036 62 142 3.5 4.3 0.00 0.00 0.00 63 1028.9
20260506114519 63 148 3.5 6.1 0.00 0.00 0.00 62 1028.8
20260506113026 63 136 3.5 6.1 0.00 0.00 0.00 61 1028.8
20260506111528 63 140 2.6 5.2 0.00 0.00 0.00 61 1028.5
20260506110025 64 134 3.5 6.1 0.00 0.00 0.00 60 1028.3
20260506104525 64 139 3.5 7.0 0.00 0.00 0.00 60 1028.3
20260506103027 65 138 3.5 7.0 0.00 0.00 0.00 59 1028.3
20260506101526 65 137 3.5 7.0 0.00 0.00 0.00 58 1028.2
20260506100013 66 132 4.3 7.8 0.00 0.00 0.00 57 1028.1
20260506093006 66 155 4.3 7.0 0.00 0.00 0.00 57 1027.9
20260506091518 67 156 2.6 6.1 0.00 0.00 0.00 56 1027.7
20260506090020 67 150 3.5 7.0 0.00 0.00 0.00 55 1027.6
20260506084510 68 140 4.3 7.8 0.00 0.00 0.00 55 1027.6
20260506083018 68 135 5.2 8.7 0.00 0.00 0.00 54 1027.6
20260506081505 69 131 5.2 10.4 0.00 0.00 0.00 54 1027.6
20260506071519 70 117 7.0 13.0 0.00 0.00 0.00 52 1027.3
20260506061507 72 131 5.2 12.2 0.00 0.00 0.00 51 1027.4
20260506044522 71 72 5.2 11.3 0.00 0.00 0.00 53 1027.8
20260506041528 70 126 3.5 13.0 0.00 0.00 0.00 54 1028.2
20260506040018 70 50 6.1 13.0 0.00 0.00 0.00 54 1028.4
20260506034526 69 54 7.0 13.9 0.00 0.00 0.00 55 1028.5
20260506033014 69 121 6.1 12.2 0.00 0.00 0.00 56 1028.6
20260506031525 68 90 6.1 12.2 0.00 0.00 0.00 58 1028.7
20260506030026 67 162 7.0 12.2 0.00 0.00 0.00 59 1028.7
20260506024521 66 90 7.0 13.0 0.00 0.00 0.00 61 1028.8
20260506023023 65 98 7.0 11.3 0.00 0.00 0.00 62 1028.9
20260506021526 64 93 8.7 13.9 0.00 0.00 0.00 63 1029.0
20260506020020 63 103 10.4 15.6 0.00 0.00 0.00 65 1028.9
20260506014527 63 104 7.0 13.0 0.00 0.00 0.00 65 1029.0
20260506013013 62 60 9.6 17.4 0.00 0.00 0.00 67 1029.0
20260506011528 61 105 10.4 16.5 0.00 0.00 0.00 68 1029.0
20260506010011 60 111 10.4 15.6 0.00 0.00 0.00 69 1028.8
20260506004519 60 84 10.4 14.8 0.00 0.00 0.00 71 1028.6
20260506003024 59 90 9.6 15.6 0.00 0.00 0.00 72 1028.5
20260506001516 58 146 9.6 14.8 0.00 0.00 0.00 73 1028.4
20260506000022 57 103 7.0 13.0 0.00 0.00 0.00 75 1028.4
20260505234600 56 102 6.1 13.0 0.00 0.00 0.00 77 1028.2
20260505231524 54 108 7.8 13.0 0.00 0.00 0.00 79 1027.7
20260505230014 54 117 7.0 12.2 0.00 0.00 0.00 79 1027.7
20260505224528 54 88 7.8 12.2 0.00 0.00 0.00 77 1027.3
20260505223024 55 117 8.7 15.6 0.00 0.00 0.00 77 1027.1
20260505221518 55 113 9.6 13.9 0.00 0.00 0.00 78 1027.0
20260505220008 54 100 8.7 13.0 0.00 0.00 0.00 78 1027.0
20260505214519 54 109 7.0 12.2 0.00 0.00 0.00 78 1026.9
20260505213023 54 124 7.8 12.2 0.00 0.00 0.00 77 1026.8
20260505211507 55 112 8.7 12.2 0.00 0.00 0.00 77 1026.8
20260505210022 55 107 7.8 12.2 0.00 0.00 0.00 77 1026.7
20260505204503 55 118 6.1 12.2 0.00 0.00 0.00 76 1026.6
20260505201522 56 93 8.7 14.8 0.00 0.00 0.00 74 1026.6
20260505200012 56 125 7.8 13.9 0.00 0.00 0.00 74 1026.7
20260505194516 56 119 7.8 13.9 0.00 0.00 0.00 73 1026.6
20260505193023 56 144 8.7 13.9 0.00 0.00 0.00 73 1026.5
20260505191511 56 132 8.7 12.2 0.00 0.00 0.00 72 1026.6
20260505190017 56 128 7.0 10.4 0.00 0.00 0.00 72 1026.5
20260505184528 56 138 6.1 9.6 0.00 0.00 0.00 71 1026.6
20260505183034 57 107 6.1 10.4 0.00 0.00 0.00 70 1026.7
20260505181525 57 118 6.1 10.4 0.00 0.00 0.00 69 1026.6